SPAINSAT

Last updated on Thu Jul 03 2025 00:02:44 GMT+0000 (Coordinated Universal Time)

1 28945U 06007A 25182.30670112 -.00000213 00000+0 00000+0 0 9994 2 28945 0.0643 251.5918 0003158 239.0162 229.4067 1.00271763 70705
UTC large
Height (km)
Speed (km/s)
/
Latitude / Longitude
Inclination (degrees)
Orbital Period (minutes)
Azimuth
Elevation
Range (km)
Doppler Factor

Next 0 passes for location: London (51.5072 / 0.1276)

Sorry there are no passes over London.